Regional Weather Roundup
Issued by NWS Cleveland, OH

Home | Current Version | Previous Version | Graphics & Text | Print | Product List | Glossary On
Versions: 1 2 3 4 5 6 7 8 9 10 11 12 13 14 15 16 17 18 19 20 21 22 23 24 25 26 27 28 29 30 31 32 33 34 35 36 37 38 39 40 41 42 43 44 45 46 47 48 49 50
000
ASUS41 KCLE 271702
RWRCLE
OHIO REGIONAL WEATHER ROUNDUP
NATIONAL WEATHER SERVICE CLEVELAND, OH
1200 PM EST THU NOV 27 2014

NOTE: "FAIR" INDICATES FEW OR NO CLOUDS BELOW 12,000 FEET WITH NO
SIGNIFICANT WEATHER AND/OR OBSTRUCTIONS TO VISIBILITY.

OHZ001>008-015>018-024>027-034-035-043-044-271800-
   NORTHWEST OHIO

CITY           SKY/WX    TMP DP  RH WIND       PRES   REMARKS
DEFIANCE       CLOUDY    33  21  61 W9        30.22F WCI  25
FINDLAY        PTSUNNY   36  20  52 W13       30.19F
TOLEDO EXPRESS CLOUDY    32  22  66 W13       30.20S WCI  22
TOLEDO EXEC    PTSUNNY   35  21  56 W13       30.20F WCI  26
LIMA           CLOUDY    33  23  66 NW10      30.21R WCI  25
$$

OHZ009>014-019>023-028>033-038-089-271800-
   NORTHEAST OHIO

CITY           SKY/WX    TMP DP  RH WIND       PRES   REMARKS
CLE-HOPKINS    FLURRIES  31  23  72 NW10      30.17F WCI  22
CLE-LAKEFRONT  CLOUDY    33  23  66 W15       30.14F WCI  23
CUY CO. ARPT   FLURRIES  34  27  75 W14       30.14S WCI  24
LORAIN-ELYRIA  CLOUDY    30  21  69 NW13      30.16F WCI  20
ASHTABULA      CLOUDY    32  27  81 NW12      30.10S WCI  23
AKRON-CANTON   LGT SNOW  32  26  78 NW13      30.11S WCI  22
WOOSTER        LGT SNOW  30  24  78 NW13      30.14S WCI  20
MANSFIELD      CLOUDY    30  20  66 NW13      30.15S WCI  20
YOUNGSTOWN     SNOW      32  29  88 W8        30.08R VSB 1/4 WCI  25
$$

OHZ042-051>053-060>062-070>072-077>081-271800-
  SOUTHWEST OHIO

CITY           SKY/WX    TMP DP  RH WIND       PRES   REMARKS
CINC-COVINGTON CLOUDY    33  20  58 W10       30.28S WCI  25
CINC-LUNKEN    CLOUDY    35  21  56 NW8       30.31R WCI  29
HAMILTON       CLOUDY    34  22  61 NW16      30.30R WCI  24
DAYTON         CLOUDY    33  21  61 NW14      30.24F WCI  23
WRIGHT-PAT AFB CLOUDY    32  21  64 W10       30.24S WCI  24
DAYTON GENERAL CLOUDY    32  20  61 NW9       30.24S WCI  24
WILMINGTON     CLOUDY    32  21  64 NW13      30.23R WCI  22
$$

OHZ036-037-039>041-045>050-054>059-063>069-073>076-082>088-271800-
  CENTRAL AND SOUTHEAST OHIO

CITY           SKY/WX    TMP DP  RH WIND       PRES   REMARKS
COLUMBUS       LGT SNOW  31  26  82 NW10      30.19F WCI  22
OSU AIRPORT    CLOUDY    30  23  75 NW13      30.20S WCI  20
BOLTON FIELD   FLURRIES  30  25  80 NW12      30.21S WCI  21
RICKENBACK AFB CLOUDY    31  26  79 NW12      30.21S WCI  22
NEWARK         CLOUDY    32  25  75 NW12      30.18S WCI  23
MARION         CLOUDY    31  21  66 NW8       30.19S WCI  23
LANCASTER      CLOUDY    32  27  81 NW12      30.20S HAZE    WCI  23
ZANESVILLE     CLOUDY    32  27  81 W10       30.16S WCI  24
NEW PHILLY     LGT SNOW  33  27  78 NW12      30.14S WCI  24
$$



USA.gov is the U.S. government's official web portal to all federal, state and local government web resources and services.